QPF
0.02 0.01 0.01 0.02 0.02 0.02 0.03 0.03 0.02 0.02 0.02 0.01 0.00 0.00 0.01 0.02 0.02 0.03 0.06 0.07 0.09 0.12 0.15 0.16 0.13 0.10 0.07 0.07 0.07 0.07 0.07 0.06 0.07 0.08 0.09 0.08 0.06 0.04 0.04 0.04 0.05 0.05 0.05
0.01 0.01 0.01 0.01 0.01 0.01 0.03 0.04 0.04 0.03 0.03 0.02 0.01 0.01 0.02 0.03 0.03 0.04 0.05 0.05 0.05 0.09 0.12 0.15 0.15 0.09 0.07 0.08 0.07 0.07 0.06 0.05 0.05 0.05 0.04 0.04 0.03 0.02 0.02 0.03 0.04 0.04 0.05
0.01 0.02 0.01 0.01 0.01 0.01 0.02 0.04 0.05 0.05 0.04 0.04 0.03 0.02 0.01 0.02 0.03 0.03 0.04 0.06 0.07 0.08 0.10 0.12 0.12 0.10 0.09 0.08 0.08 0.07 0.06 0.06 0.06 0.05 0.04 0.04 0.03 0.03 0.03 0.04 0.05 0.05 0.05
0.01 0.03 0.02 0.01 0.02 0.02 0.02 0.04 0.05 0.05 0.04 0.05 0.02 0.01 0.02 0.02 0.03 0.04 0.04 0.05 0.07 0.09 0.11 0.11 0.09 0.08 0.08 0.08 0.07 0.06 0.05 0.06 0.06 0.06 0.06 0.05 0.05 0.04 0.05 0.05 0.04 0.04 0.04
0.03 0.05 0.06 0.05 0.03 0.02 0.03 0.03 0.03 0.03 0.04 0.04 0.02 0.01 0.01 0.02 0.03 0.03 0.05 0.05 0.07 0.07 0.06 0.04 0.04 0.05 0.06 0.06 0.06 0.05 0.06 0.05 0.05 0.06 0.07 0.07 0.05 0.04 0.04 0.04 0.03 0.03 0.04
0.04 0.06 0.06 0.06 0.03 0.02 0.03 0.03 0.03 0.03 0.03 0.03 0.01 0.01 0.01 0.02 0.02 0.03 0.04 0.03 0.03 0.02 0.02 0.02 0.03 0.03 0.04 0.05 0.05 0.05 0.05 0.05 0.05 0.05 0.04 0.04 0.03 0.04 0.04 0.03 0.02 0.02 0.03
0.04 0.05 0.05 0.04 0.02 0.02 0.02 0.03 0.02 0.02 0.02 0.01 0.01 0.02 0.02 0.02 0.02 0.01 0.01 0.01 0.01 0.01 0.01 0.02 0.03 0.03 0.03 0.04 0.04 0.03 0.02 0.02 0.02 0.02 0.02 0.02 0.02 0.02 0.03 0.03 0.02 0.02 0.03
0.03 0.03 0.04 0.02 0.02 0.02 0.02 0.02 0.02 0.02 0.01 0.01 0.02 0.02 0.03 0.02 0.01 0.01 0.02 0.02 0.01 0.01 0.01 0.01 0.02 0.03 0.04 0.04 0.03 0.01 0.01 0.01 0.01 0.01 0.01 0.02 0.02 0.02 0.03 0.02 0.02 0.03 0.03
0.03 0.04 0.03 0.02 0.02 0.03 0.03 0.03 0.02 0.03 0.02 0.01 0.01 0.03 0.03 0.02 0.02 0.01 0.02 0.03 0.03 0.02 0.01 0.02 0.03 0.04 0.04 0.03 0.02 0.00 0.01 0.01 0.01 0.01 0.01 0.02 0.03 0.03 0.03 0.02 0.02 0.02 0.02
0.03 0.03 0.03 0.03 0.03 0.03 0.04 0.03 0.02 0.03 0.02 0.02 0.02 0.02 0.02 0.02 0.02 0.02 0.03 0.04 0.04 0.02 0.02 0.03 0.03 0.03 0.02 0.01 0.01 0.00 0.00 0.00 0.01 0.01 0.02 0.02 0.03 0.05 0.03 0.02 0.01 0.01 0.02
0.01 0.02 0.02 0.02 0.03 0.03 0.03 0.03 0.02 0.02 0.03 0.03 0.03 0.03 0.03 0.03 0.03 0.02 0.04 0.05 0.06 0.04 0.03 0.03 0.03 0.02 0.01 0.00 0.00 0.00 0.00 0.00 0.00 0.01 0.01 0.02 0.03 0.04 0.04 0.04 0.03 0.02 0.02
0.01 0.01 0.01 0.02 0.03 0.03 0.03 0.03 0.03 0.03 0.03 0.03 0.03 0.02 0.03 0.03 0.04 0.03 0.04 0.06 0.07 0.05 0.02 0.02 0.02 0.01 0.01 0.01 0.00 0.00 0.00 0.00 0.00 0.00 0.01 0.02 0.02 0.02 0.03 0.03 0.03 0.02 0.03
0.02 0.02 0.01 0.01 0.02 0.02 0.02 0.03 0.03 0.03 0.03 0.03 0.02 0.01 0.02 0.02 0.03 0.03 0.03 0.05 0.05 0.04 0.02 0.01 0.01 0.01 0.01 0.01 0.01 0.00 0.00 0.00 0.00 0.00 0.01 0.02 0.03 0.02 0.04 0.04 0.03 0.03 0.03
0.02 0.02 0.01 0.01 0.01 0.01 0.01 0.02 0.02 0.03 0.02 0.04 0.03 0.02 0.02 0.01 0.01 0.02 0.03 0.04 0.04 0.04 0.02 0.01 0.01 0.01 0.00 0.01 0.01 0.01 0.01 0.00 0.00 0.00 0.02 0.04 0.04 0.05 0.04 0.04 0.03 0.02 0.01
0.01 0.01 0.01 0.02 0.02 0.01 0.01 0.02 0.02 0.03 0.03 0.03 0.04 0.03 0.02 0.01 0.01 0.01 0.02 0.03 0.03 0.04 0.03 0.02 0.01 0.01 0.00 0.00 0.00 0.01 0.01 0.01 0.01 0.02 0.03 0.03 0.03 0.03 0.03 0.03 0.02 0.01 0.01
0.02 0.01 0.01 0.02 0.01 0.01 0.02 0.01 0.02 0.03 0.03 0.03 0.04 0.03 0.02 0.01 0.01 0.01 0.01 0.02 0.02 0.02 0.03 0.02 0.01 0.00 0.00 0.00 0.00 0.00 0.01 0.01 0.01 0.02 0.03 0.02 0.01 0.01 0.01 0.01 0.01 0.02 0.02
0.03 0.02 0.02 0.02 0.01 0.02 0.02 0.02 0.03 0.02 0.02 0.03 0.04 0.04 0.03 0.02 0.02 0.02 0.02 0.02 0.01 0.02 0.03 0.02 0.01 0.01 0.00 0.00 0.00 0.00 0.00 0.00 0.01 0.01 0.01 0.01 0.01 0.01 0.01 0.01 0.01 0.02 0.03
0.02 0.02 0.02 0.02 0.02 0.02 0.01 0.02 0.02 0.01 0.01 0.02 0.03 0.04 0.04 0.04 0.04 0.03 0.02 0.02 0.01 0.02 0.02 0.02 0.01 0.01 0.00 0.00 0.00 0.00 0.00 0.00 0.00 0.00 0.00 0.00 0.00 0.01 0.01 0.01 0.01 0.01 0.02
0.02 0.03 0.02 0.02 0.02 0.01 0.01 0.01 0.01 0.01 0.01 0.02 0.02 0.03 0.04 0.05 0.05 0.04 0.03 0.02 0.02 0.02 0.02 0.02 0.01 0.00 0.00 0.00 0.00 0.00 0.00 0.00 0.00 0.00 0.00 0.00 0.00 0.00 0.00 0.00 0.01 0.01 0.01
0.03 0.03 0.03 0.02 0.02 0.01 0.01 0.01 0.01 0.01 0.01 0.01 0.02 0.02 0.03 0.03 0.04 0.05 0.05 0.04 0.03 0.02 0.02 0.02 0.01 0.01 0.00 0.00 0.00 0.00 0.00 0.00 0.00 0.00 0.00 0.00 0.00 0.00 0.00 0.00 0.00 0.01 0.02
0.02 0.03 0.03 0.03 0.02 0.02 0.02 0.01 0.01 0.01 0.01 0.01 0.02 0.02 0.02 0.04 0.04 0.04 0.04 0.04 0.04 0.03 0.02 0.02 0.02 0.02 0.01 0.01 0.00 0.00 0.00 0.00 0.00 0.00 0.01 0.00 0.00 0.00 0.00 0.00 0.00 0.01 0.01
0.01 0.02 0.03 0.02 0.02 0.01 0.02 0.02 0.01 0.01 0.01 0.01 0.01 0.01 0.02 0.03 0.04 0.05 0.04 0.04 0.05 0.04 0.04 0.03 0.03 0.02 0.02 0.01 0.01 0.00 0.00 0.00 0.00 0.00 0.00 0.00 0.00 0.00 0.00 0.00 0.00 0.01 0.01
0.01 0.02 0.03 0.03 0.02 0.02 0.01 0.01 0.01 0.01 0.01 0.01 0.01 0.01 0.02 0.02 0.03 0.04 0.04 0.05 0.05 0.04 0.04 0.03 0.03 0.03 0.02 0.01 0.01 0.01 0.00 0.00 0.00 0.00 0.00 0.00 0.00 0.00 0.00 0.00 0.00 0.01 0.01
0.02 0.02 0.03 0.03 0.04 0.03 0.02 0.01 0.01 0.01 0.01 0.01 0.01 0.01 0.01 0.02 0.03 0.04 0.04 0.03 0.03 0.03 0.03 0.03 0.03 0.03 0.02 0.02 0.01 0.01 0.00 0.00 0.00 0.00 0.00 0.00 0.00 0.00 0.00 0.00 0.01 0.00 0.00
0.01 0.01 0.02 0.02 0.03 0.04 0.04 0.02 0.02 0.01 0.01 0.01 0.00 0.00 0.01 0.02 0.03 0.04 0.04 0.04 0.03 0.02 0.03 0.04 0.03 0.02 0.02 0.02 0.02 0.02 0.01 0.01 0.00 0.00 0.00 0.00 0.00 0.00 0.00 0.01 0.01 0.01 0.01
0.01 0.01 0.01 0.01 0.02 0.02 0.03 0.04 0.03 0.02 0.01 0.01 0.01 0.01 0.01 0.01 0.03 0.05 0.05 0.05 0.03 0.02 0.03 0.03 0.03 0.03 0.02 0.02 0.02 0.01 0.01 0.01 0.01 0.01 0.01 0.00 0.00 0.00 0.01 0.00 0.00 0.01 0.01
MSLP
1012.24 1012.43 1012.62 1012.79 1012.96 1013.10 1013.25 1013.39 1013.55 1013.71 1013.88 1014.06 1014.22 1014.37 1014.50 1014.62 1014.74 1014.87 1015.01 1015.17 1015.36 1015.57 1015.80 1016.03 1016.27 1016.50 1016.73 1016.96 1017.18 1017.41 1017.64 1017.86 1018.06 1018.25 1018.40 1018.53 1018.63 1018.70 1018.75 1018.77 1018.77 1018.75 1018.71
1012.47 1012.71 1012.97 1013.23 1013.49 1013.73 1013.95 1014.15 1014.34 1014.53 1014.70 1014.87 1015.02 1015.15 1015.27 1015.38 1015.48 1015.59 1015.72 1015.88 1016.05 1016.25 1016.46 1016.68 1016.91 1017.14 1017.37 1017.61 1017.84 1018.07 1018.29 1018.50 1018.70 1018.86 1018.99 1019.09 1019.15 1019.18 1019.19 1019.17 1019.14 1019.09 1019.02
1012.69 1012.99 1013.32 1013.67 1014.01 1014.34 1014.64 1014.91 1015.15 1015.37 1015.56 1015.74 1015.89 1016.03 1016.14 1016.25 1016.35 1016.46 1016.57 1016.69 1016.83 1016.99 1017.16 1017.35 1017.56 1017.78 1018.00 1018.24 1018.47 1018.70 1018.92 1019.12 1019.30 1019.43 1019.54 1019.60 1019.62 1019.61 1019.57 1019.51 1019.43 1019.35 1019.25
1012.90 1013.23 1013.63 1014.06 1014.49 1014.90 1015.28 1015.61 1015.90 1016.15 1016.37 1016.56 1016.73 1016.88 1017.02 1017.15 1017.25 1017.35 1017.44 1017.54 1017.64 1017.75 1017.87 1018.02 1018.19 1018.38 1018.59 1018.81 1019.04 1019.26 1019.47 1019.66 1019.82 1019.93 1020.00 1020.03 1020.01 1019.96 1019.88 1019.78 1019.66 1019.54 1019.41
1013.08 1013.45 1013.90 1014.39 1014.89 1015.37 1015.81 1016.19 1016.52 1016.79 1017.03 1017.24 1017.44 1017.62 1017.79 1017.94 1018.07 1018.18 1018.27 1018.34 1018.40 1018.47 1018.54 1018.64 1018.76 1018.92 1019.10 1019.31 1019.52 1019.74 1019.93 1020.10 1020.23 1020.32 1020.36 1020.36 1020.31 1020.23 1020.11 1019.98 1019.84 1019.68 1019.52
1013.24 1013.64 1014.12 1014.67 1015.22 1015.75 1016.22 1016.63 1016.96 1017.24 1017.49 1017.71 1017.93 1018.14 1018.35 1018.55 1018.72 1018.86 1018.97 1019.03 1019.08 1019.11 1019.14 1019.20 1019.28 1019.41 1019.56 1019.75 1019.94 1020.13 1020.31 1020.45 1020.55 1020.61 1020.62 1020.59 1020.52 1020.42 1020.30 1020.15 1019.99 1019.83 1019.65
1013.41 1013.82 1014.34 1014.91 1015.49 1016.04 1016.52 1016.91 1017.23 1017.49 1017.72 1017.94 1018.17 1018.42 1018.67 1018.92 1019.15 1019.35 1019.49 1019.58 1019.63 1019.66 1019.67 1019.71 1019.77 1019.87 1020.00 1020.16 1020.33 1020.49 1020.63 1020.74 1020.81 1020.83 1020.82 1020.77 1020.69 1020.59 1020.46 1020.33 1020.18 1020.01 1019.84
1013.62 1014.03 1014.56 1015.14 1015.73 1016.26 1016.72 1017.08 1017.35 1017.57 1017.76 1017.96 1018.19 1018.45 1018.75 1019.06 1019.36 1019.62 1019.83 1019.97 1020.06 1020.11 1020.15 1020.18 1020.24 1020.33 1020.45 1020.58 1020.73 1020.86 1020.97 1021.03 1021.06 1021.05 1021.01 1020.94 1020.86 1020.77 1020.66 1020.55 1020.42 1020.28 1020.12
1013.88 1014.29 1014.82 1015.39 1015.95 1016.46 1016.86 1017.17 1017.38 1017.53 1017.66 1017.82 1018.04 1018.32 1018.65 1019.02 1019.39 1019.73 1020.01 1020.23 1020.39 1020.49 1020.57 1020.64 1020.72 1020.82 1020.94 1021.07 1021.20 1021.30 1021.37 1021.39 1021.38 1021.33 1021.26 1021.18 1021.10 1021.02 1020.94 1020.86 1020.76 1020.65 1020.52
1014.20 1014.60 1015.10 1015.65 1016.18 1016.63 1016.98 1017.21 1017.35 1017.43 1017.50 1017.61 1017.80 1018.08 1018.44 1018.86 1019.30 1019.72 1020.09 1020.39 1020.63 1020.82 1020.96 1021.09 1021.22 1021.36 1021.50 1021.64 1021.76 1021.84 1021.88 1021.87 1021.81 1021.73 1021.64 1021.54 1021.46 1021.39 1021.34 1021.28 1021.23 1021.14 1021.03
1014.54 1014.92 1015.40 1015.91 1016.39 1016.79 1017.08 1017.24 1017.31 1017.32 1017.33 1017.40 1017.56 1017.83 1018.21 1018.66 1019.15 1019.64 1020.09 1020.48 1020.82 1021.09 1021.32 1021.53 1021.73 1021.92 1022.11 1022.27 1022.40 1022.48 1022.51 1022.47 1022.40 1022.29 1022.17 1022.06 1021.98 1021.92 1021.88 1021.84 1021.79 1021.73 1021.62
1014.84 1015.21 1015.66 1016.13 1016.56 1016.91 1017.15 1017.26 1017.27 1017.23 1017.20 1017.23 1017.37 1017.62 1018.00 1018.47 1018.99 1019.53 1020.05 1020.53 1020.94 1021.31 1021.63 1021.93 1022.22 1022.48 1022.73 1022.94 1023.11 1023.20 1023.23 1023.20 1023.11 1022.99 1022.86 1022.75 1022.65 1022.59 1022.55 1022.51 1022.47 1022.39 1022.28
1015.08 1015.42 1015.84 1016.27 1016.67 1016.98 1017.18 1017.25 1017.24 1017.17 1017.11 1017.12 1017.23 1017.47 1017.84 1018.32 1018.86 1019.43 1019.99 1020.52 1021.01 1021.46 1021.88 1022.27 1022.64 1022.99 1023.32 1023.59 1023.81 1023.95 1024.00 1023.99 1023.91 1023.80 1023.67 1023.55 1023.46 1023.39 1023.33 1023.28 1023.20 1023.10 1022.96
1015.20 1015.52 1015.91 1016.32 1016.68 1016.97 1017.15 1017.22 1017.20 1017.12 1017.06 1017.06 1017.17 1017.40 1017.75 1018.21 1018.75 1019.32 1019.91 1020.48 1021.02 1021.54 1022.03 1022.51 1022.97 1023.40 1023.81 1024.16 1024.44 1024.64 1024.75 1024.77 1024.73 1024.64 1024.54 1024.43 1024.33 1024.25 1024.17 1024.09 1023.98 1023.83 1023.64
1015.21 1015.52 1015.88 1016.27 1016.62 1016.90 1017.08 1017.15 1017.15 1017.09 1017.05 1017.05 1017.16 1017.37 1017.71 1018.15 1018.67 1019.23 1019.82 1020.40 1020.98 1021.54 1022.09 1022.64 1023.18 1023.69 1024.17 1024.60 1024.95 1025.22 1025.39 1025.47 1025.48 1025.44 1025.37 1025.29 1025.20 1025.11 1025.02 1024.91 1024.75 1024.55 1024.30
1015.15 1015.45 1015.80 1016.16 1016.51 1016.78 1016.98 1017.08 1017.10 1017.08 1017.06 1017.09 1017.19 1017.40 1017.72 1018.13 1018.62 1019.16 1019.73 1020.31 1020.90 1021.49 1022.08 1022.68 1023.27 1023.85 1024.40 1024.89 1025.31 1025.64 1025.88 1026.02 1026.09 1026.11 1026.08 1026.04 1025.98 1025.90 1025.80 1025.66 1025.48 1025.23 1024.93
1015.08 1015.37 1015.70 1016.06 1016.40 1016.69 1016.90 1017.03 1017.08 1017.10 1017.12 1017.17 1017.29 1017.50 1017.80 1018.18 1018.64 1019.15 1019.69 1020.25 1020.84 1021.43 1022.04 1022.66 1023.29 1023.91 1024.49 1025.03 1025.50 1025.88 1026.17 1026.37 1026.50 1026.57 1026.60 1026.60 1026.58 1026.53 1026.44 1026.30 1026.10 1025.83 1025.50
1015.06 1015.34 1015.67 1016.02 1016.36 1016.66 1016.88 1017.04 1017.14 1017.19 1017.24 1017.32 1017.46 1017.66 1017.95 1018.32 1018.74 1019.22 1019.73 1020.27 1020.83 1021.42 1022.02 1022.65 1023.28 1023.90 1024.50 1025.05 1025.54 1025.95 1026.27 1026.52 1026.69 1026.81 1026.89 1026.95 1026.97 1026.96 1026.90 1026.78 1026.59 1026.32 1025.98
1015.14 1015.42 1015.75 1016.10 1016.44 1016.73 1016.97 1017.15 1017.27 1017.36 1017.45 1017.55 1017.71 1017.93 1018.21 1018.56 1018.96 1019.41 1019.89 1020.40 1020.94 1021.49 1022.08 1022.67 1023.29 1023.89 1024.47 1025.01 1025.49 1025.89 1026.22 1026.48 1026.68 1026.84 1026.96 1027.06 1027.13 1027.16 1027.15 1027.07 1026.91 1026.67 1026.35
1015.33 1015.63 1015.96 1016.30 1016.64 1016.93 1017.18 1017.36 1017.51 1017.62 1017.74 1017.88 1018.06 1018.29 1018.58 1018.93 1019.32 1019.75 1020.20 1020.68 1021.17 1021.69 1022.23 1022.79 1023.36 1023.92 1024.46 1024.95 1025.39 1025.77 1026.08 1026.33 1026.54 1026.70 1026.85 1026.97 1027.08 1027.15 1027.19 1027.16 1027.05 1026.86 1026.58
1015.62 1015.93 1016.26 1016.61 1016.94 1017.23 1017.47 1017.66 1017.82 1017.96 1018.10 1018.27 1018.49 1018.75 1019.06 1019.42 1019.81 1020.22 1020.65 1021.09 1021.55 1022.02 1022.51 1023.00 1023.51 1024.01 1024.49 1024.93 1025.32 1025.65 1025.92 1026.14 1026.32 1026.48 1026.62 1026.76 1026.88 1026.99 1027.06 1027.07 1027.01 1026.87 1026.64
1015.95 1016.28 1016.63 1016.97 1017.29 1017.57 1017.81 1018.00 1018.17 1018.33 1018.51 1018.72 1018.97 1019.28 1019.62 1020.00 1020.40 1020.81 1021.21 1021.62 1022.03 1022.45 1022.88 1023.31 1023.75 1024.18 1024.60 1024.98 1025.31 1025.59 1025.81 1025.99 1026.13 1026.26 1026.38 1026.49 1026.62 1026.73 1026.81 1026.86 1026.84 1026.74 1026.56
1016.27 1016.62 1016.98 1017.33 1017.64 1017.91 1018.14 1018.33 1018.51 1018.70 1018.92 1019.17 1019.48 1019.84 1020.22 1020.63 1021.05 1021.45 1021.84 1022.22 1022.58 1022.94 1023.31 1023.68 1024.05 1024.42 1024.78 1025.11 1025.39 1025.62 1025.80 1025.93 1026.03 1026.11 1026.19 1026.27 1026.36 1026.45 1026.53 1026.58 1026.57 1026.49 1026.34
1016.52 1016.90 1017.28 1017.63 1017.94 1018.20 1018.42 1018.62 1018.82 1019.03 1019.29 1019.61 1019.97 1020.38 1020.82 1021.27 1021.70 1022.10 1022.48 1022.82 1023.14 1023.44 1023.75 1024.06 1024.39 1024.71 1025.02 1025.31 1025.56 1025.76 1025.91 1026.00 1026.06 1026.10 1026.12 1026.16 1026.19 1026.24 1026.28 1026.29 1026.27 1026.18 1026.03
1016.67 1017.08 1017.48 1017.84 1018.15 1018.41 1018.63 1018.84 1019.06 1019.31 1019.62 1019.99 1020.42 1020.88 1021.37 1021.85 1022.30 1022.71 1023.06 1023.37 1023.64 1023.90 1024.16 1024.43 1024.71 1025.01 1025.30 1025.57 1025.81 1026.00 1026.13 1026.21 1026.23 1026.23 1026.20 1026.17 1026.14 1026.12 1026.10 1026.06 1025.99 1025.87 1025.69
1016.71 1017.17 1017.59 1017.97 1018.28 1018.55 1018.78 1019.00 1019.25 1019.54 1019.90 1020.32 1020.80 1021.32 1021.85 1022.36 1022.82 1023.22 1023.55 1023.83 1024.07 1024.28 1024.50 1024.73 1024.99 1025.28 1025.57 1025.85 1026.10 1026.29 1026.43 1026.50 1026.50 1026.46 1026.39 1026.30 1026.20 1026.11 1026.01 1025.90 1025.76 1025.59 1025.36
Thickness
5718 5717 5716 5714 5714 5713 5713 5712 5713 5712 5712 5712 5712 5712 5712 5710 5710 5709 5706 5705 5706 5706 5706 5707 5706 5706 5706 5705 5706 5706 5706 5707 5707 5707 5708 5708 5708 5709 5710 5711 5712 5712 5713
5715 5714 5713 5711 5710 5710 5709 5709 5708 5707 5707 5706 5706 5705 5705 5705 5704 5703 5702 5701 5700 5700 5700 5701 5701 5701 5700 5700 5700 5700 5701 5701 5702 5702 5703 5703 5704 5704 5705 5706 5706 5707 5707
5712 5711 5710 5709 5707 5706 5706 5705 5704 5703 5702 5701 5700 5700 5699 5699 5699 5699 5698 5697 5696 5695 5694 5694 5695 5695 5694 5694 5695 5695 5696 5696 5697 5697 5698 5698 5699 5700 5700 5700 5701 5701 5702
5710 5708 5707 5705 5704 5703 5702 5701 5700 5699 5697 5696 5695 5695 5694 5693 5693 5693 5693 5693 5692 5691 5689 5689 5689 5689 5689 5689 5690 5690 5691 5691 5692 5692 5693 5693 5694 5694 5694 5695 5696 5696 5697
5707 5705 5703 5702 5701 5700 5699 5699 5697 5696 5693 5691 5691 5690 5690 5689 5688 5689 5689 5689 5687 5687 5686 5684 5684 5683 5683 5684 5685 5685 5686 5686 5687 5687 5688 5688 5689 5689 5690 5690 5691 5691 5692
5703 5702 5700 5699 5698 5697 5695 5694 5692 5691 5690 5689 5689 5687 5686 5685 5684 5684 5684 5684 5684 5683 5683 5682 5681 5680 5679 5679 5680 5680 5681 5681 5682 5682 5683 5683 5684 5684 5685 5686 5686 5687 5687
5699 5697 5697 5696 5695 5694 5693 5692 5690 5689 5687 5687 5685 5683 5682 5682 5681 5679 5680 5680 5680 5679 5679 5678 5678 5677 5677 5674 5674 5675 5676 5677 5677 5677 5678 5678 5679 5679 5680 5681 5682 5682 5682
5695 5695 5694 5693 5691 5691 5690 5689 5687 5687 5685 5685 5684 5681 5677 5676 5676 5677 5676 5676 5677 5676 5676 5675 5674 5673 5673 5673 5670 5670 5670 5672 5672 5673 5673 5674 5674 5675 5676 5676 5677 5677 5677
5691 5691 5691 5690 5689 5688 5687 5686 5686 5684 5683 5682 5683 5680 5676 5673 5673 5672 5673 5673 5673 5673 5672 5671 5671 5670 5669 5668 5667 5665 5665 5666 5667 5668 5669 5670 5670 5671 5671 5671 5672 5672 5672
5688 5687 5687 5687 5686 5686 5684 5684 5684 5684 5682 5680 5679 5679 5680 5679 5673 5668 5669 5671 5670 5669 5669 5668 5667 5666 5665 5664 5662 5660 5661 5662 5663 5664 5665 5666 5666 5666 5666 5667 5667 5667 5667
5684 5683 5683 5683 5683 5683 5682 5682 5682 5682 5681 5679 5678 5677 5675 5674 5676 5671 5665 5665 5666 5666 5665 5664 5663 5662 5661 5660 5659 5657 5656 5657 5658 5659 5660 5661 5661 5661 5661 5661 5662 5661 5661
5681 5680 5680 5680 5680 5680 5680 5680 5679 5678 5678 5678 5677 5677 5674 5672 5671 5670 5667 5664 5663 5662 5662 5661 5660 5658 5656 5655 5653 5651 5651 5652 5652 5653 5654 5656 5656 5656 5656 5656 5656 5656 5655
5679 5678 5678 5678 5678 5678 5677 5677 5676 5676 5676 5675 5675 5674 5674 5673 5673 5671 5668 5665 5662 5660 5659 5658 5657 5655 5653 5652 5649 5647 5646 5647 5647 5648 5649 5650 5650 5650 5650 5650 5650 5650 5650
5677 5676 5676 5675 5675 5674 5674 5674 5675 5674 5674 5674 5673 5672 5671 5672 5672 5670 5668 5664 5660 5658 5657 5656 5654 5653 5651 5648 5645 5644 5643 5642 5642 5643 5643 5644 5644 5644 5645 5644 5644 5644 5644
5674 5674 5673 5672 5672 5672 5672 5672 5671 5672 5672 5672 5671 5670 5670 5670 5669 5668 5667 5665 5661 5657 5654 5653 5651 5650 5647 5645 5642 5642 5641 5638 5638 5638 5638 5639 5639 5639 5639 5638 5638 5639 5638
5671 5670 5671 5670 5670 5669 5669 5669 5669 5669 5669 5668 5667 5667 5667 5667 5667 5665 5664 5664 5663 5660 5655 5652 5649 5648 5645 5643 5639 5639 5637 5635 5634 5634 5634 5634 5633 5633 5633 5633 5633 5633 5633
5667 5667 5667 5668 5668 5668 5667 5665 5665 5665 5666 5666 5666 5665 5664 5664 5663 5662 5661 5661 5660 5658 5653 5650 5648 5645 5642 5641 5637 5637 5636 5634 5632 5630 5630 5629 5629 5628 5628 5628 5627 5627 5627
5664 5664 5664 5664 5664 5664 5664 5663 5662 5662 5663 5663 5663 5663 5662 5661 5660 5659 5657 5657 5657 5656 5653 5648 5644 5642 5640 5638 5636 5634 5633 5632 5630 5627 5626 5625 5624 5623 5623 5622 5622 5622 5621
5660 5660 5660 5660 5660 5661 5661 5660 5660 5660 5660 5660 5660 5660 5660 5659 5657 5656 5654 5654 5653 5652 5650 5647 5643 5639 5637 5635 5632 5631 5630 5629 5628 5624 5622 5621 5620 5619 5618 5617 5617 5616 5616
5655 5656 5656 5656 5656 5657 5657 5658 5657 5657 5657 5658 5657 5657 5657 5657 5656 5654 5652 5651 5649 5647 5645 5644 5640 5637 5634 5632 5631 5629 5628 5626 5625 5623 5620 5619 5617 5615 5614 5613 5613 5612 5611
5651 5651 5651 5652 5652 5652 5653 5653 5653 5653 5654 5653 5654 5654 5654 5653 5652 5651 5650 5648 5646 5644 5642 5641 5639 5635 5633 5630 5630 5629 5627 5625 5623 5622 5620 5618 5616 5614 5613 5610 5609 5608 5607
5646 5646 5647 5647 5646 5646 5645 5644 5645 5648 5649 5649 5649 5650 5649 5648 5646 5644 5644 5643 5642 5642 5641 5639 5638 5636 5634 5632 5630 5628 5626 5624 5622 5619 5618 5616 5614 5613 5612 5610 5607 5605 5604
5640 5640 5641 5640 5640 5640 5638 5638 5638 5641 5643 5644 5645 5645 5645 5645 5643 5644 5640 5637 5637 5636 5637 5639 5638 5637 5635 5633 5630 5626 5625 5623 5622 5619 5615 5614 5612 5611 5609 5607 5604 5602 5600
5634 5634 5635 5635 5634 5634 5632 5631 5632 5635 5637 5639 5640 5640 5640 5640 5639 5639 5639 5637 5636 5635 5633 5633 5636 5636 5635 5632 5629 5626 5623 5620 5619 5614 5611 5611 5610 5609 5607 5605 5601 5599 5597
5628 5628 5628 5628 5628 5628 5626 5625 5625 5629 5631 5633 5634 5635 5635 5635 5633 5632 5633 5634 5633 5632 5630 5628 5628 5628 5627 5625 5623 5620 5618 5615 5614 5612 5609 5608 5608 5606 5605 5603 5600 5597 5595
5622 5621 5622 5622 5622 5622 5620 5619 5618 5622 5624 5626 5627 5627 5626 5627 5626 5625 5627 5629 5628 5629 5627 5624 5622 5622 5621 5619 5617 5617 5616 5613 5613 5611 5608 5604 5605 5602 5602 5601 5598 5595 5592